Погода в Усть-Бряни

Россия / Республика Бурятия     51°56′26″N   108°08′17″E
темп.,
°C
ветер,
м/с
пор.,
м/с
влажн.,
%
обл.,
%
осадки,
мм/ч
давл.,
гПа
погр.,
м
16 мая, вс
вс1623:00+6зюз2346100 0.0 101668
02:00+5зюз235928 0.0 101681
05:00+4зюз237361 0.0 101583
08:00+10зюз385091 0.0 1012553
11:00+17зюз71332100 0.0 10092347
14:00+14зсз91452100 0.0 10101624
17:00+15зсз8115075 0.0 10091808
20:00+11з5106349 0.1 1010847
17 мая, пн
пн1723:00+7зюз238297 0.0 101053
02:00+7зюз118370 0.0 100839
05:00+6юз009097 0.0 100510
08:00+9зюз2477100 0.3 1002305
11:00+9з41182100 1.6 10031251
14:00+9сз5968100 1.7 10071133
17:00+10сз585093 0.0 10081367
20:00+8з485776 0.1 1009432
18 мая, вт
вт1823:00+4з337995 0.1 101248
02:00+3з228076 0.1 101340
05:00+1з228627 0.0 101318
08:00+6зюз356086 0.0 1012897
11:00+9зсз684795 0.1 10101904
14:00+10з674476 0.1 10091925
17:00+11зсз674464 0.0 10071639
20:00+8з355641 0.0 1007170
19 мая, ср
ср1923:00+5з1170100 0.0 100713
02:00+5всв2268100 0.0 100442
05:00+5св2373100 0.1 1002140
08:00+6всв2382100 0.2 1003354
11:00+7вюв0178100 0.0 1003521
14:00+10з126487 0.1 1002950
17:00+12сз335320 0.0 10011272
20:00+9зсз226516 0.0 100336
20 мая, чт
чт2023:00+5ссз228032 0.0 100415
02:00+4св22855 0.0 100214
05:00+3св228886 0.0 100039
08:00+7всв3468100 0.0 998355
11:00+15в224774 0.0 995732
14:00+20ссв123677 0.0 9921082
17:00+21всв2234100 0.0 9901248
20:00+8зсз6969100 0.0 997405